Time,TemperatureF,DewpointF,PressureIn,WindDirection,WindDirectionDegrees,WindSpeedMPH,WindSpeedGustMPH,Humidity,HourlyPrecipIn,Conditions,Clouds,dailyrainin,SoftwareType,DateUTC
2013-02-14 00:00:00,39.0,32.1,29.82,WNW,300,5.0,9.0,76,0.00,,---,0.00,VWS V14.01,2013-02-14 05:00:00,
2013-02-14 00:05:00,39.3,32.0,29.82,West,277,8.0,14.0,75,0.00,,---,0.00,VWS V14.01,2013-02-14 05:05:00,
2013-02-14 00:10:00,39.5,31.9,29.83,WNW,296,6.0,14.0,74,0.00,,---,0.00,VWS V14.01,2013-02-14 05:10:00,
2013-02-14 00:15:00,39.8,32.2,29.83,NNW,329,10.0,17.0,74,0.00,,---,0.00,VWS V14.01,2013-02-14 05:15:00,
2013-02-14 00:20:00,39.8,31.9,29.83,WNW,296,10.0,17.0,73,0.00,,---,0.00,VWS V14.01,2013-02-14 05:20:00,
2013-02-14 00:25:00,39.9,32.0,29.83,NW,304,6.0,17.0,73,0.00,,---,0.00,VWS V14.01,2013-02-14 05:25:00,
2013-02-14 00:30:00,39.9,32.0,29.84,NW,324,4.0,8.0,73,0.00,,---,0.00,VWS V14.01,2013-02-14 05:30:00,
2013-02-14 00:35:00,39.8,31.9,29.84,North,360,6.0,9.0,73,0.00,,---,0.00,VWS V14.01,2013-02-14 05:35:00,
2013-02-14 00:40:00,39.8,31.9,29.84,WNW,294,11.0,12.0,73,0.00,,---,0.00,VWS V14.01,2013-02-14 05:40:00,
2013-02-14 00:45:00,39.7,31.8,29.84,NW,325,8.0,14.0,73,0.00,,---,0.00,VWS V14.01,2013-02-14 05:45:00,
2013-02-14 00:50:00,39.6,32.0,29.85,West,270,7.0,14.0,74,0.00,,---,0.00,VWS V14.01,2013-02-14 05:50:00,
2013-02-14 00:55:00,39.7,31.8,29.85,WSW,255,8.0,21.0,73,0.00,,---,0.00,VWS V14.01,2013-02-14 05:55:00,
2013-02-14 01:00:00,39.7,31.4,29.86,West,277,10.0,16.0,72,0.00,,---,0.00,VWS V14.01,2013-02-14 06:00:00,
2013-02-14 01:05:00,39.6,31.3,29.86,NW,313,8.0,16.0,72,0.00,,---,0.00,VWS V14.01,2013-02-14 06:05:00,
2013-02-14 01:10:00,39.5,30.9,29.86,WNW,290,11.0,16.0,71,0.00,,---,0.00,VWS V14.01,2013-02-14 06:10:00,
2013-02-14 01:15:00,39.4,31.1,29.86,NW,304,3.0,16.0,72,0.00,,---,0.00,VWS V14.01,2013-02-14 06:15:00,
2013-02-14 01:20:00,39.3,30.7,29.86,NNW,334,7.0,16.0,71,0.00,,---,0.00,VWS V14.01,2013-02-14 06:20:00,
2013-02-14 01:25:00,39.3,30.7,29.86,NW,305,9.0,16.0,71,0.00,,---,0.00,VWS V14.01,2013-02-14 06:25:00,
2013-02-14 01:30:00,39.3,30.7,29.87,NW,325,2.0,7.0,71,0.00,,---,0.00,VWS V14.01,2013-02-14 06:30:00,
2013-02-14 01:35:00,39.2,31.0,29.87,NW,313,5.0,8.0,72,0.00,,---,0.00,VWS V14.01,2013-02-14 06:35:00,
2013-02-14 01:40:00,39.0,30.8,29.87,WNW,282,10.0,17.0,72,0.00,,---,0.00,VWS V14.01,2013-02-14 06:40:00,
2013-02-14 01:45:00,39.0,30.4,29.87,NW,321,3.0,17.0,71,0.00,,---,0.00,VWS V14.01,2013-02-14 06:45:00,
2013-02-14 01:50:00,38.9,30.0,29.87,NNE,18,4.0,17.0,70,0.00,,---,0.00,VWS V14.01,2013-02-14 06:50:00,
2013-02-14 01:55:00,39.0,30.1,29.88,NW,314,4.0,17.0,70,0.00,,---,0.00,VWS V14.01,2013-02-14 06:55:00,
2013-02-14 02:00:00,38.9,30.0,29.88,NW,317,1.0,4.0,70,0.00,,---,0.00,VWS V14.01,2013-02-14 07:00:00,
2013-02-14 02:05:00,38.8,29.9,29.88,WNW,291,5.0,8.0,70,0.00,,---,0.00,VWS V14.01,2013-02-14 07:05:00,
2013-02-14 02:10:00,38.7,29.8,29.88,WNW,295,6.0,8.0,70,0.00,,---,0.00,VWS V14.01,2013-02-14 07:10:00,
2013-02-14 02:15:00,38.6,29.7,29.88,WNW,297,4.0,8.0,70,0.00,,---,0.00,VWS V14.01,2013-02-14 07:15:00,
2013-02-14 02:20:00,38.4,29.8,29.89,NW,317,7.0,13.0,71,0.00,,---,0.00,VWS V14.01,2013-02-14 07:20:00,
2013-02-14 02:25:00,38.3,29.7,29.88,NNW,327,6.0,13.0,71,0.00,,---,0.00,VWS V14.01,2013-02-14 07:25:00,
2013-02-14 02:30:00,38.2,29.3,29.89,NNW,336,1.0,1.0,70,0.00,,---,0.00,VWS V14.01,2013-02-14 07:30:00,
2013-02-14 02:35:00,38.1,29.9,29.90,North,360,0.0,3.0,72,0.00,,---,0.00,VWS V14.01,2013-02-14 07:35:00,
2013-02-14 02:40:00,38.0,29.5,29.89,NW,307,7.0,9.0,71,0.00,,---,0.00,VWS V14.01,2013-02-14 07:40:00,
2013-02-14 02:45:00,37.9,29.0,29.89,NW,318,5.0,16.0,70,0.00,,---,0.00,VWS V14.01,2013-02-14 07:45:00,
2013-02-14 02:50:00,37.9,29.0,29.89,WNW,298,5.0,16.0,70,0.00,,---,0.00,VWS V14.01,2013-02-14 07:50:00,
2013-02-14 02:55:00,37.9,29.0,29.90,WNW,300,8.0,16.0,70,0.00,,---,0.00,VWS V14.01,2013-02-14 07:55:00,
2013-02-14 03:00:00,37.9,29.0,29.90,WNW,296,5.0,7.0,70,0.00,,---,0.00,VWS V14.01,2013-02-14 08:00:00,
2013-02-14 03:05:00,37.9,28.6,29.90,NW,308,2.0,10.0,69,0.00,,---,0.00,VWS V14.01,2013-02-14 08:05:00,
2013-02-14 03:10:00,37.9,28.6,29.90,WNW,300,7.0,10.0,69,0.00,,---,0.00,VWS V14.01,2013-02-14 08:10:00,
2013-02-14 03:15:00,37.8,28.6,29.90,WNW,303,6.0,13.0,69,0.00,,---,0.00,VWS V14.01,2013-02-14 08:15:00,
2013-02-14 03:20:00,37.7,28.5,29.90,WNW,296,4.0,13.0,69,0.00,,---,0.00,VWS V14.01,2013-02-14 08:20:00,
2013-02-14 03:25:00,37.6,28.4,29.90,WNW,286,9.0,13.0,69,0.00,,---,0.00,VWS V14.01,2013-02-14 08:25:00,
2013-02-14 03:30:00,37.5,28.3,29.90,NW,304,2.0,4.0,69,0.00,,---,0.00,VWS V14.01,2013-02-14 08:30:00,
2013-02-14 03:35:00,37.4,28.2,29.90,WNW,291,5.0,8.0,69,0.00,,---,0.00,VWS V14.01,2013-02-14 08:35:00,
2013-02-14 03:40:00,37.3,28.1,29.91,WNW,302,2.0,8.0,69,0.00,,---,0.00,VWS V14.01,2013-02-14 08:40:00,
2013-02-14 03:45:00,37.3,28.1,29.91,NW,310,5.0,10.0,69,0.00,,---,0.00,VWS V14.01,2013-02-14 08:45:00,
2013-02-14 03:50:00,37.1,28.2,29.90,NW,323,4.0,10.0,70,0.00,,---,0.00,VWS V14.01,2013-02-14 08:50:00,
2013-02-14 03:55:00,36.9,27.7,29.91,WNW,288,4.0,10.0,69,0.00,,---,0.00,VWS V14.01,2013-02-14 08:55:00,
2013-02-14 04:00:00,36.8,27.6,29.91,WNW,294,1.0,5.0,69,0.00,,---,0.00,VWS V14.01,2013-02-14 09:00:00,
2013-02-14 04:05:00,36.8,27.6,29.91,WNW,284,3.0,6.0,69,0.00,,---,0.00,VWS V14.01,2013-02-14 09:05:00,
2013-02-14 04:10:00,36.8,27.6,29.91,WNW,284,0.0,6.0,69,0.00,,---,0.00,VWS V14.01,2013-02-14 09:10:00,
2013-02-14 04:15:00,36.7,27.5,29.91,WNW,285,0.0,6.0,69,0.00,,---,0.00,VWS V14.01,2013-02-14 09:15:00,
2013-02-14 04:20:00,36.4,27.9,29.92,WNW,285,0.0,6.0,71,0.00,,---,0.00,VWS V14.01,2013-02-14 09:20:00,
2013-02-14 04:25:00,36.1,27.6,29.92,WNW,303,3.0,6.0,71,0.00,,---,0.00,VWS V14.01,2013-02-14 09:25:00,
2013-02-14 04:30:00,35.9,27.1,29.92,NW,308,0.0,3.0,70,0.00,,---,0.00,VWS V14.01,2013-02-14 09:30:00,
2013-02-14 04:35:00,35.8,27.0,29.92,WNW,302,0.0,7.0,70,0.00,,---,0.00,VWS V14.01,2013-02-14 09:35:00,
2013-02-14 04:40:00,35.9,27.1,29.92,WNW,300,1.0,7.0,70,0.00,,---,0.00,VWS V14.01,2013-02-14 09:40:00,
2013-02-14 04:45:00,35.9,27.1,29.92,NW,321,0.0,7.0,70,0.00,,---,0.00,VWS V14.01,2013-02-14 09:45:00,
2013-02-14 04:50:00,35.9,26.7,29.92,NNW,330,3.0,7.0,69,0.00,,---,0.00,VWS V14.01,2013-02-14 09:50:00,
2013-02-14 04:55:00,36.0,26.8,29.92,NNW,331,0.0,7.0,69,0.00,,---,0.00,VWS V14.01,2013-02-14 09:55:00,
2013-02-14 05:00:00,35.9,26.7,29.92,NNW,338,4.0,4.0,69,0.00,,---,0.00,VWS V14.01,2013-02-14 10:00:00,
2013-02-14 05:05:00,36.0,26.5,29.93,NNE,22,0.0,6.0,68,0.00,,---,0.00,VWS V14.01,2013-02-14 10:05:00,
2013-02-14 05:10:00,35.9,26.7,29.93,NNE,22,3.0,6.0,69,0.00,,---,0.00,VWS V14.01,2013-02-14 10:10:00,
2013-02-14 05:15:00,35.7,26.2,29.93,NNE,22,0.0,6.0,68,0.00,,---,0.00,VWS V14.01,2013-02-14 10:15:00,
2013-02-14 05:20:00,35.6,26.5,29.93,NNE,22,2.0,6.0,69,0.00,,---,0.00,VWS V14.01,2013-02-14 10:20:00,
2013-02-14 05:25:00,35.5,26.0,29.93,NNE,22,0.0,6.0,68,0.00,,---,0.00,VWS V14.01,2013-02-14 10:25:00,
2013-02-14 05:30:00,35.5,26.0,29.94,NNE,17,1.0,3.0,68,0.00,,---,0.00,VWS V14.01,2013-02-14 10:30:00,
2013-02-14 05:35:00,35.5,26.4,29.94,North,5,0.0,6.0,69,0.00,,---,0.00,VWS V14.01,2013-02-14 10:35:00,
2013-02-14 05:40:00,35.4,26.3,29.94,North,5,0.0,6.0,69,0.00,,---,0.00,VWS V14.01,2013-02-14 10:40:00,
2013-02-14 05:45:00,35.3,26.5,29.94,North,5,1.0,6.0,70,0.00,,---,0.00,VWS V14.01,2013-02-14 10:45:00,
2013-02-14 05:50:00,35.0,26.2,29.94,North,5,3.0,6.0,70,0.00,,---,0.00,VWS V14.01,2013-02-14 10:50:00,
2013-02-14 05:55:00,34.9,26.1,29.95,NNW,331,5.0,6.0,70,0.00,,---,0.00,VWS V14.01,2013-02-14 10:55:00,
2013-02-14 06:00:00,34.7,26.3,29.95,WNW,297,5.0,7.0,71,0.00,,---,0.00,VWS V14.01,2013-02-14 11:00:00,
2013-02-14 06:05:00,34.4,26.0,29.95,NW,315,4.0,8.0,71,0.00,,---,0.00,VWS V14.01,2013-02-14 11:05:00,
2013-02-14 06:10:00,34.3,25.9,29.95,NNW,331,0.0,8.0,71,0.00,,---,0.00,VWS V14.01,2013-02-14 11:10:00,
2013-02-14 06:15:00,34.3,25.9,29.96,NNW,331,0.0,8.0,71,0.00,,---,0.00,VWS V14.01,2013-02-14 11:15:00,
2013-02-14 06:20:00,34.4,25.6,29.96,NW,319,5.0,8.0,70,0.00,,---,0.00,VWS V14.01,2013-02-14 11:20:00,
2013-02-14 06:25:00,34.5,25.7,29.96,WNW,297,3.0,8.0,70,0.00,,---,0.00,VWS V14.01,2013-02-14 11:25:00,
2013-02-14 06:30:00,34.4,25.6,29.96,WNW,297,0.0,3.0,70,0.00,,---,0.00,VWS V14.01,2013-02-14 11:30:00,
2013-02-14 06:35:00,34.4,25.6,29.96,NW,320,1.0,5.0,70,0.00,,---,0.00,VWS V14.01,2013-02-14 11:35:00,
2013-02-14 06:40:00,34.3,25.5,29.96,NW,321,0.0,6.0,70,0.00,,---,0.00,VWS V14.01,2013-02-14 11:40:00,
2013-02-14 06:45:00,34.3,25.2,29.97,NNW,342,0.0,6.0,69,0.00,,---,0.00,VWS V14.01,2013-02-14 11:45:00,
2013-02-14 06:50:00,34.3,25.5,29.97,NNW,342,0.0,6.0,70,0.00,,---,0.00,VWS V14.01,2013-02-14 11:50:00,
2013-02-14 06:55:00,34.3,25.2,29.97,NW,325,0.0,6.0,69,0.00,,---,0.00,VWS V14.01,2013-02-14 11:55:00,
2013-02-14 07:00:00,34.2,25.1,29.97,NNW,338,3.0,5.0,69,0.00,,---,0.00,VWS V14.01,2013-02-14 12:00:00,
2013-02-14 07:05:00,34.2,25.1,29.98,NNW,341,0.0,5.0,69,0.00,,---,0.00,VWS V14.01,2013-02-14 12:05:00,
2013-02-14 07:10:00,34.1,25.0,29.98,NNW,341,3.0,5.0,69,0.00,,---,0.00,VWS V14.01,2013-02-14 12:10:00,
2013-02-14 07:15:00,33.9,24.8,29.98,NNW,341,0.0,5.0,69,0.00,,---,0.00,VWS V14.01,2013-02-14 12:15:00,
2013-02-14 07:20:00,33.8,24.7,29.98,NNW,341,0.0,5.0,69,0.00,,---,0.00,VWS V14.01,2013-02-14 12:20:00,
2013-02-14 07:25:00,33.7,24.6,29.98,NNW,341,2.0,5.0,69,0.00,,---,0.00,VWS V14.01,2013-02-14 12:25:00,
2013-02-14 07:30:00,33.7,25.0,29.99,NNW,341,3.0,3.0,70,0.00,,---,0.00,VWS V14.01,2013-02-14 12:30:00,
2013-02-14 07:35:00,33.6,24.9,29.99,NNW,341,0.0,4.0,70,0.00,,---,0.00,VWS V14.01,2013-02-14 12:35:00,
2013-02-14 07:40:00,33.4,24.7,29.99,NNW,341,2.0,5.0,70,0.00,,---,0.00,VWS V14.01,2013-02-14 12:40:00,
2013-02-14 07:45:00,33.5,24.8,30.00,NNW,340,2.0,5.0,70,0.00,,---,0.00,VWS V14.01,2013-02-14 12:45:00,
2013-02-14 07:50:00,33.5,24.8,30.00,NNW,340,0.0,5.0,70,0.00,,---,0.00,VWS V14.01,2013-02-14 12:50:00,
2013-02-14 07:55:00,33.6,25.2,30.00,NNW,340,0.0,5.0,71,0.00,,---,0.00,VWS V14.01,2013-02-14 12:55:00,
2013-02-14 08:00:00,33.7,25.0,30.01,NNW,340,3.0,5.0,70,0.00,,---,0.00,VWS V14.01,2013-02-14 13:00:00,
2013-02-14 08:05:00,34.0,25.3,30.01,NNW,340,2.0,5.0,70,0.00,,---,0.00,VWS V14.01,2013-02-14 13:05:00,
2013-02-14 08:10:00,34.3,25.5,30.01,NNW,340,0.0,5.0,70,0.00,,---,0.00,VWS V14.01,2013-02-14 13:10:00,
2013-02-14 08:15:00,34.8,25.7,30.01,NNW,340,1.0,5.0,69,0.00,,---,0.00,VWS V14.01,2013-02-14 13:15:00,
2013-02-14 08:20:00,35.1,25.6,30.01,NW,308,2.0,6.0,68,0.00,,---,0.00,VWS V14.01,2013-02-14 13:20:00,
2013-02-14 08:25:00,35.5,26.0,30.02,NW,308,2.0,6.0,68,0.00,,---,0.00,VWS V14.01,2013-02-14 13:25:00,
2013-02-14 08:30:00,35.9,26.0,30.02,NW,308,2.0,3.0,67,0.00,,---,0.00,VWS V14.01,2013-02-14 13:30:00,
2013-02-14 08:35:00,36.2,26.3,30.02,NW,306,6.0,6.0,67,0.00,,---,0.00,VWS V14.01,2013-02-14 13:35:00,
2013-02-14 08:40:00,36.5,26.2,30.03,NW,320,0.0,6.0,66,0.00,,---,0.00,VWS V14.01,2013-02-14 13:40:00,
2013-02-14 08:45:00,36.8,25.8,30.03,NW,320,0.0,6.0,64,0.00,,---,0.00,VWS V14.01,2013-02-14 13:45:00,
2013-02-14 08:50:00,37.0,26.0,30.04,NW,318,4.0,6.0,64,0.00,,---,0.00,VWS V14.01,2013-02-14 13:50:00,
2013-02-14 08:55:00,37.2,26.2,30.04,NW,318,3.0,6.0,64,0.00,,---,0.00,VWS V14.01,2013-02-14 13:55:00,
2013-02-14 09:00:00,37.4,26.0,30.04,NW,317,4.0,5.0,63,0.00,,---,0.00,VWS V14.01,2013-02-14 14:00:00,
2013-02-14 09:05:00,37.5,25.7,30.05,NW,315,0.0,6.0,62,0.00,,---,0.00,VWS V14.01,2013-02-14 14:05:00,
2013-02-14 09:10:00,37.7,26.3,30.05,NW,316,4.0,6.0,63,0.00,,---,0.00,VWS V14.01,2013-02-14 14:10:00,
2013-02-14 09:15:00,38.0,26.9,30.06,NW,316,0.0,6.0,64,0.00,,---,0.00,VWS V14.01,2013-02-14 14:15:00,
2013-02-14 09:20:00,38.3,27.6,30.05,NW,315,0.0,6.0,65,0.00,,---,0.00,VWS V14.01,2013-02-14 14:20:00,
2013-02-14 09:25:00,38.6,27.9,30.05,NW,315,0.0,6.0,65,0.00,,---,0.00,VWS V14.01,2013-02-14 14:25:00,
2013-02-14 09:30:00,38.9,27.8,30.05,NW,315,3.0,4.0,64,0.00,,---,0.00,VWS V14.01,2013-02-14 14:30:00,
2013-02-14 09:35:00,39.1,27.2,30.05,SSE,168,2.0,7.0,62,0.00,,---,0.00,VWS V14.01,2013-02-14 14:35:00,
2013-02-14 09:40:00,39.3,27.4,30.04,WNW,282,3.0,7.0,62,0.00,,---,0.00,VWS V14.01,2013-02-14 14:40:00,
2013-02-14 09:45:00,39.5,28.0,30.04,West,281,5.0,7.0,63,0.00,,---,0.00,VWS V14.01,2013-02-14 14:45:00,
2013-02-14 09:50:00,39.5,26.8,30.04,West,281,3.0,7.0,60,0.00,,---,0.00,VWS V14.01,2013-02-14 14:50:00,
2013-02-14 09:55:00,39.4,27.1,30.04,NW,321,3.0,7.0,61,0.00,,---,0.00,VWS V14.01,2013-02-14 14:55:00,
2013-02-14 10:00:00,39.3,27.0,30.04,North,350,3.0,3.0,61,0.00,,---,0.00,VWS V14.01,2013-02-14 15:00:00,
2013-02-14 10:05:00,39.3,27.8,30.04,North,5,1.0,5.0,63,0.00,,---,0.00,VWS V14.01,2013-02-14 15:05:00,
2013-02-14 10:10:00,39.5,27.6,30.05,NNE,13,0.0,5.0,62,0.00,,---,0.00,VWS V14.01,2013-02-14 15:10:00,
2013-02-14 10:15:00,40.0,28.0,30.05,SW,224,5.0,5.0,62,0.00,,---,0.00,VWS V14.01,2013-02-14 15:15:00,
2013-02-14 10:20:00,40.4,27.2,30.05,SSE,150,0.0,5.0,59,0.00,,---,0.00,VWS V14.01,2013-02-14 15:20:00,
2013-02-14 10:25:00,40.5,26.9,30.05,SSW,203,2.0,5.0,58,0.00,,---,0.00,VWS V14.01,2013-02-14 15:25:00,
2013-02-14 10:30:00,40.7,28.7,30.05,South,182,1.0,5.0,62,0.00,,---,0.00,VWS V14.01,2013-02-14 15:30:00,
2013-02-14 10:35:00,41.0,27.8,30.05,WSW,241,4.0,6.0,59,0.00,,---,0.00,VWS V14.01,2013-02-14 15:35:00,
2013-02-14 10:40:00,41.3,27.6,30.05,WSW,240,2.0,7.0,58,0.00,,---,0.00,VWS V14.01,2013-02-14 15:40:00,
2013-02-14 10:45:00,41.4,28.2,30.05,SW,218,4.0,7.0,59,0.00,,---,0.00,VWS V14.01,2013-02-14 15:45:00,
2013-02-14 10:50:00,41.4,27.8,30.04,WNW,298,3.0,7.0,58,0.00,,---,0.00,VWS V14.01,2013-02-14 15:50:00,
2013-02-14 10:55:00,41.4,28.2,30.04,NW,319,1.0,7.0,59,0.00,,---,0.00,VWS V14.01,2013-02-14 15:55:00,
2013-02-14 11:00:00,41.4,27.8,30.04,North,350,6.0,6.0,58,0.00,,---,0.00,VWS V14.01,2013-02-14 16:00:00,
2013-02-14 11:05:00,41.2,27.6,30.03,ENE,63,3.0,6.0,58,0.00,,---,0.00,VWS V14.01,2013-02-14 16:05:00,
2013-02-14 11:10:00,41.5,28.3,30.04,SE,128,5.0,6.0,59,0.00,,---,0.00,VWS V14.01,2013-02-14 16:10:00,
2013-02-14 11:15:00,42.0,27.5,30.04,SSW,212,1.0,6.0,56,0.00,,---,0.00,VWS V14.01,2013-02-14 16:15:00,
2013-02-14 11:20:00,42.5,28.8,30.05,South,180,0.0,6.0,58,0.00,,---,0.00,VWS V14.01,2013-02-14 16:20:00,
2013-02-14 11:25:00,42.8,29.1,30.05,West,275,0.0,6.0,58,0.00,,---,0.00,VWS V14.01,2013-02-14 16:25:00,
2013-02-14 11:30:00,43.3,30.0,30.04,West,281,6.0,10.0,59,0.00,,---,0.00,VWS V14.01,2013-02-14 16:30:00,
2013-02-14 11:35:00,43.4,28.8,30.04,SSW,205,6.0,10.0,56,0.00,,---,0.00,VWS V14.01,2013-02-14 16:35:00,
2013-02-14 11:40:00,43.4,28.3,30.03,West,268,2.0,10.0,55,0.00,,---,0.00,VWS V14.01,2013-02-14 16:40:00,
2013-02-14 11:45:00,43.4,27.9,30.02,WNW,303,0.0,10.0,54,0.00,,---,0.00,VWS V14.01,2013-02-14 16:45:00,
2013-02-14 11:50:00,43.3,29.1,30.02,WNW,295,4.0,10.0,57,0.00,,---,0.00,VWS V14.01,2013-02-14 16:50:00,
2013-02-14 11:55:00,43.3,28.7,30.02,NNW,342,4.0,10.0,56,0.00,,---,0.00,VWS V14.01,2013-02-14 16:55:00,
2013-02-14 12:00:00,43.1,28.0,30.02,NNW,338,0.0,1.0,55,0.00,,---,0.00,VWS V14.01,2013-02-14 17:00:00,
2013-02-14 12:05:00,43.4,29.2,30.02,NNW,337,3.0,3.0,57,0.00,,---,0.00,VWS V14.01,2013-02-14 17:05:00,
2013-02-14 12:10:00,43.8,28.7,30.02,WSW,246,3.0,6.0,55,0.00,,---,0.00,VWS V14.01,2013-02-14 17:10:00,
2013-02-14 12:15:00,44.1,29.9,30.02,South,187,0.0,6.0,57,0.00,,---,0.00,VWS V14.01,2013-02-14 17:15:00,
2013-02-14 12:20:00,44.3,29.2,30.01,NW,324,1.0,6.0,55,0.00,,---,0.00,VWS V14.01,2013-02-14 17:20:00,
2013-02-14 12:25:00,44.5,30.2,30.02,NNW,330,3.0,6.0,57,0.00,,---,0.00,VWS V14.01,2013-02-14 17:25:00,
2013-02-14 12:30:00,45.0,29.8,30.02,West,273,3.0,3.0,55,0.00,,---,0.00,VWS V14.01,2013-02-14 17:30:00,
2013-02-14 12:35:00,45.6,29.9,30.02,SSW,200,6.0,9.0,54,0.00,,---,0.00,VWS V14.01,2013-02-14 17:35:00,
2013-02-14 12:40:00,46.1,31.7,30.01,SW,216,3.0,9.0,57,0.00,,---,0.00,VWS V14.01,2013-02-14 17:40:00,
2013-02-14 12:45:00,46.2,29.6,30.01,NW,326,3.0,9.0,52,0.00,,---,0.00,VWS V14.01,2013-02-14 17:45:00,
2013-02-14 12:50:00,46.0,30.8,30.01,WSW,237,4.0,9.0,55,0.00,,---,0.00,VWS V14.01,2013-02-14 17:50:00,
2013-02-14 12:55:00,46.3,31.9,30.01,WSW,251,4.0,9.0,57,0.00,,---,0.00,VWS V14.01,2013-02-14 17:55:00,
2013-02-14 13:00:00,46.7,29.5,30.00,SSW,200,3.0,3.0,51,0.00,,---,0.00,VWS V14.01,2013-02-14 18:00:00,
2013-02-14 13:05:00,47.0,28.9,30.00,SSW,197,0.0,5.0,49,0.00,,---,0.00,VWS V14.01,2013-02-14 18:05:00,
2013-02-14 13:10:00,47.1,29.9,30.00,WSW,239,1.0,7.0,51,0.00,,---,0.00,VWS V14.01,2013-02-14 18:10:00,
2013-02-14 13:15:00,47.3,29.1,30.00,West,267,2.0,7.0,49,0.00,,---,0.00,VWS V14.01,2013-02-14 18:15:00,
2013-02-14 13:20:00,47.5,29.8,30.00,NE,41,3.0,7.0,50,0.00,,---,0.00,VWS V14.01,2013-02-14 18:20:00,
2013-02-14 13:25:00,47.4,30.2,30.00,NNE,30,1.0,7.0,51,0.00,,---,0.00,VWS V14.01,2013-02-14 18:25:00,
2013-02-14 13:30:00,47.6,29.9,30.00,ESE,114,2.0,4.0,50,0.00,,---,0.00,VWS V14.01,2013-02-14 18:30:00,
2013-02-14 13:35:00,47.5,30.3,30.00,NE,40,4.0,5.0,51,0.00,,---,0.00,VWS V14.01,2013-02-14 18:35:00,
2013-02-14 13:40:00,47.6,29.9,29.99,NE,40,2.0,5.0,50,0.00,,---,0.00,VWS V14.01,2013-02-14 18:40:00,
2013-02-14 13:45:00,47.7,30.0,29.99,ESE,107,5.0,6.0,50,0.00,,---,0.00,VWS V14.01,2013-02-14 18:45:00,
2013-02-14 13:50:00,48.2,28.9,29.99,South,174,0.0,7.0,47,0.00,,---,0.00,VWS V14.01,2013-02-14 18:50:00,
2013-02-14 13:55:00,48.3,29.0,29.99,NW,325,3.0,7.0,47,0.00,,---,0.00,VWS V14.01,2013-02-14 18:55:00,
2013-02-14 14:00:00,48.4,29.1,29.98,SE,136,1.0,6.0,47,0.00,,---,0.00,VWS V14.01,2013-02-14 19:00:00,
2013-02-14 14:05:00,48.6,31.8,29.98,SSE,150,4.0,6.0,52,0.00,,---,0.00,VWS V14.01,2013-02-14 19:05:00,
2013-02-14 14:10:00,49.2,27.7,29.97,WNW,295,1.0,6.0,43,0.00,,---,0.00,VWS V14.01,2013-02-14 19:10:00,
2013-02-14 14:15:00,49.9,27.7,29.97,SW,221,9.0,13.0,42,0.00,,---,0.00,VWS V14.01,2013-02-14 19:15:00,
2013-02-14 14:20:00,50.4,28.8,29.97,SW,215,3.0,13.0,43,0.00,,---,0.00,VWS V14.01,2013-02-14 19:20:00,
2013-02-14 14:25:00,50.9,29.2,29.97,WSW,240,3.0,13.0,43,0.00,,---,0.00,VWS V14.01,2013-02-14 19:25:00,
2013-02-14 14:30:00,51.1,28.8,29.97,WNW,290,6.0,6.0,42,0.00,,---,0.00,VWS V14.01,2013-02-14 19:30:00,
2013-02-14 14:35:00,51.3,27.8,29.97,SW,223,7.0,8.0,40,0.00,,---,0.00,VWS V14.01,2013-02-14 19:35:00,
2013-02-14 14:40:00,51.5,27.4,29.97,WSW,252,3.0,11.0,39,0.00,,---,0.00,VWS V14.01,2013-02-14 19:40:00,
2013-02-14 14:45:00,51.6,28.1,29.96,West,260,6.0,11.0,40,0.00,,---,0.00,VWS V14.01,2013-02-14 19:45:00,
2013-02-14 14:50:00,51.6,27.5,29.96,WSW,238,3.0,11.0,39,0.00,,---,0.00,VWS V14.01,2013-02-14 19:50:00,
2013-02-14 14:55:00,51.7,27.6,29.96,West,266,4.0,11.0,39,0.00,,---,0.00,VWS V14.01,2013-02-14 19:55:00,
2013-02-14 15:00:00,51.7,27.6,29.95,WNW,286,2.0,3.0,39,0.00,,---,0.00,VWS V14.01,2013-02-14 20:00:00,
2013-02-14 15:05:00,51.7,29.9,29.95,South,184,4.0,6.0,43,0.00,,---,0.00,VWS V14.01,2013-02-14 20:05:00,
2013-02-14 15:10:00,51.9,28.4,29.95,SSW,213,3.0,6.0,40,0.00,,---,0.00,VWS V14.01,2013-02-14 20:10:00,
2013-02-14 15:15:00,51.9,28.4,29.95,SW,215,6.0,6.0,40,0.00,,---,0.00,VWS V14.01,2013-02-14 20:15:00,
2013-02-14 15:20:00,51.9,28.4,29.95,South,174,1.0,9.0,40,0.00,,---,0.00,VWS V14.01,2013-02-14 20:20:00,
2013-02-14 15:25:00,52.1,28.5,29.94,WSW,238,3.0,9.0,40,0.00,,---,0.00,VWS V14.01,2013-02-14 20:25:00,
2013-02-14 15:30:00,52.3,29.3,29.95,SW,219,3.0,3.0,41,0.00,,---,0.00,VWS V14.01,2013-02-14 20:30:00,
2013-02-14 15:35:00,52.5,28.9,29.95,SSW,200,2.0,8.0,40,0.00,,---,0.00,VWS V14.01,2013-02-14 20:35:00,
2013-02-14 15:40:00,52.5,28.9,29.96,SSW,192,3.0,10.0,40,0.00,,---,0.00,VWS V14.01,2013-02-14 20:40:00,
2013-02-14 15:45:00,52.6,30.2,29.97,SW,224,5.0,10.0,42,0.00,,---,0.00,VWS V14.01,2013-02-14 20:45:00,
2013-02-14 15:50:00,52.6,28.4,29.97,SSW,192,0.0,10.0,39,0.00,,---,0.00,VWS V14.01,2013-02-14 20:50:00,
2013-02-14 15:55:00,52.8,28.5,29.97,SSW,197,2.0,10.0,39,0.00,,---,0.00,VWS V14.01,2013-02-14 20:55:00,
2013-02-14 16:00:00,53.1,29.4,29.96,SW,224,1.0,3.0,40,0.00,,---,0.00,VWS V14.01,2013-02-14 21:00:00,
2013-02-14 16:05:00,53.2,28.9,29.96,South,180,5.0,6.0,39,0.00,,---,0.00,VWS V14.01,2013-02-14 21:05:00,
2013-02-14 16:10:00,53.2,28.9,29.96,SSW,201,1.0,6.0,39,0.00,,---,0.00,VWS V14.01,2013-02-14 21:10:00,
2013-02-14 16:15:00,53.2,28.9,29.96,South,187,3.0,6.0,39,0.00,,---,0.00,VWS V14.01,2013-02-14 21:15:00,
2013-02-14 16:20:00,53.1,28.2,29.95,SSW,200,2.0,6.0,38,0.00,,---,0.00,VWS V14.01,2013-02-14 21:20:00,
2013-02-14 16:25:00,52.8,28.5,29.96,SW,223,0.0,6.0,39,0.00,,---,0.00,VWS V14.01,2013-02-14 21:25:00,
2013-02-14 16:30:00,52.5,28.3,29.96,SW,223,0.0,1.0,39,0.00,,---,0.00,VWS V14.01,2013-02-14 21:30:00,
2013-02-14 16:35:00,52.2,28.6,29.95,SE,134,4.0,4.0,40,0.00,,---,0.00,VWS V14.01,2013-02-14 21:35:00,
2013-02-14 16:40:00,51.7,27.6,29.95,SSE,150,4.0,6.0,39,0.00,,---,0.00,VWS V14.01,2013-02-14 21:40:00,
2013-02-14 16:45:00,51.5,28.0,29.96,SW,214,3.0,6.0,40,0.00,,---,0.00,VWS V14.01,2013-02-14 21:45:00,
2013-02-14 16:50:00,51.3,28.4,29.96,South,186,2.0,6.0,41,0.00,,---,0.00,VWS V14.01,2013-02-14 21:50:00,
2013-02-14 16:55:00,51.2,28.3,29.96,SSE,164,2.0,8.0,41,0.00,,---,0.00,VWS V14.01,2013-02-14 21:55:00,
2013-02-14 17:00:00,51.1,28.8,29.96,South,184,2.0,3.0,42,0.00,,---,0.00,VWS V14.01,2013-02-14 22:00:00,
2013-02-14 17:05:00,51.0,28.1,29.96,SW,215,2.0,7.0,41,0.00,,---,0.00,VWS V14.01,2013-02-14 22:05:00,
2013-02-14 17:10:00,50.9,28.6,29.96,WSW,244,3.0,7.0,42,0.00,,---,0.00,VWS V14.01,2013-02-14 22:10:00,
2013-02-14 17:15:00,50.9,28.6,29.96,SW,227,0.0,7.0,42,0.00,,---,0.00,VWS V14.01,2013-02-14 22:15:00,
2013-02-14 17:20:00,50.9,29.2,29.96,SW,215,0.0,7.0,43,0.00,,---,0.00,VWS V14.01,2013-02-14 22:20:00,
2013-02-14 17:25:00,51.0,29.3,29.96,South,182,0.0,7.0,43,0.00,,---,0.00,VWS V14.01,2013-02-14 22:25:00,
2013-02-14 17:30:00,51.0,29.3,29.96,South,181,0.0,6.0,43,0.00,,---,0.00,VWS V14.01,2013-02-14 22:30:00,
2013-02-14 17:35:00,51.0,29.9,29.96,South,181,1.0,6.0,44,0.00,,---,0.00,VWS V14.01,2013-02-14 22:35:00,
2013-02-14 17:40:00,50.9,28.6,29.96,South,178,1.0,6.0,42,0.00,,---,0.00,VWS V14.01,2013-02-14 22:40:00,
2013-02-14 17:45:00,50.7,29.0,29.96,South,178,0.0,6.0,43,0.00,,---,0.00,VWS V14.01,2013-02-14 22:45:00,
2013-02-14 17:50:00,50.4,29.3,29.96,South,178,0.0,6.0,44,0.00,,---,0.00,VWS V14.01,2013-02-14 22:50:00,
2013-02-14 17:55:00,50.1,29.0,29.96,South,178,0.0,6.0,44,0.00,,---,0.00,VWS V14.01,2013-02-14 22:55:00,
2013-02-14 18:00:00,49.7,29.2,29.96,South,178,0.0,0.0,45,0.00,,---,0.00,VWS V14.01,2013-02-14 23:00:00,
2013-02-14 18:05:00,49.2,29.3,29.97,South,178,0.0,0.0,46,0.00,,---,0.00,VWS V14.01,2013-02-14 23:05:00,
2013-02-14 18:10:00,48.6,28.8,29.97,South,178,0.0,2.0,46,0.00,,---,0.00,VWS V14.01,2013-02-14 23:10:00,
2013-02-14 18:15:00,48.1,28.8,29.97,South,178,0.0,2.0,47,0.00,,---,0.00,VWS V14.01,2013-02-14 23:15:00,
2013-02-14 18:20:00,47.6,28.9,29.97,South,178,0.0,2.0,48,0.00,,---,0.00,VWS V14.01,2013-02-14 23:20:00,
2013-02-14 18:25:00,47.2,29.0,29.97,South,178,0.0,2.0,49,0.00,,---,0.00,VWS V14.01,2013-02-14 23:25:00,
2013-02-14 18:30:00,46.7,28.6,29.97,South,178,0.0,0.0,49,0.00,,---,0.00,VWS V14.01,2013-02-14 23:30:00,
2013-02-14 18:35:00,46.0,29.4,29.98,South,178,0.0,0.0,52,0.00,,---,0.00,VWS V14.01,2013-02-14 23:35:00,
2013-02-14 18:40:00,45.2,29.6,29.97,South,178,0.0,0.0,54,0.00,,---,0.00,VWS V14.01,2013-02-14 23:40:00,
2013-02-14 18:45:00,44.6,29.0,29.97,South,178,2.0,2.0,54,0.00,,---,0.00,VWS V14.01,2013-02-14 23:45:00,
2013-02-14 18:50:00,44.2,28.6,29.97,South,178,0.0,2.0,54,0.00,,---,0.00,VWS V14.01,2013-02-14 23:50:00,
2013-02-14 18:55:00,43.8,29.6,29.97,South,178,0.0,2.0,57,0.00,,---,0.00,VWS V14.01,2013-02-14 23:55:00,
2013-02-14 19:00:00,43.2,29.9,29.97,South,178,0.0,0.0,59,0.00,,---,0.00,VWS V14.01,2013-02-15 00:00:00,
2013-02-14 19:05:00,42.6,29.7,29.98,South,178,0.0,0.0,60,0.00,,---,0.00,VWS V14.01,2013-02-15 00:05:00,
2013-02-14 19:10:00,42.3,30.2,29.98,South,178,2.0,2.0,62,0.00,,---,0.00,VWS V14.01,2013-02-15 00:10:00,
2013-02-14 19:15:00,41.8,29.8,29.98,SW,226,0.0,2.0,62,0.00,,---,0.00,VWS V14.01,2013-02-15 00:15:00,
2013-02-14 19:19:00,41.3,29.7,29.98,SW,226,0.0,2.0,63,0.00,,---,0.00,VWS V14.01,2013-02-15 00:19:00,
2013-02-14 19:25:00,40.9,29.7,29.99,SW,236,0.0,2.0,64,0.00,,---,0.00,VWS V14.01,2013-02-15 00:25:00,
2013-02-14 19:29:00,40.4,30.0,29.99,NW,315,2.0,3.0,66,0.00,,---,0.00,VWS V14.01,2013-02-15 00:29:00,
2013-02-14 19:30:00,40.5,30.0,29.99,NW,315,1.0,4.0,66,0.00,,---,0.00,VWS V14.01,2013-02-15 00:30:00,
2013-02-14 19:34:00,40.2,30.1,29.99,NW,315,0.0,3.0,67,0.00,,---,0.00,VWS V14.01,2013-02-15 00:34:00,
2013-02-14 19:39:00,39.8,30.5,29.99,NW,315,0.0,3.0,69,0.00,,---,0.00,VWS V14.01,2013-02-15 00:39:00,
2013-02-14 19:44:00,39.4,30.1,29.99,NW,315,0.0,3.0,69,0.00,,---,0.00,VWS V14.01,2013-02-15 00:44:00,
2013-02-14 19:49:00,39.2,29.9,29.99,NW,315,3.0,4.0,69,0.00,,---,0.00,VWS V14.01,2013-02-15 00:49:00,
2013-02-14 19:54:00,39.2,29.9,29.99,NW,315,0.0,4.0,69,0.00,,---,0.00,VWS V14.01,2013-02-15 00:54:00,
2013-02-14 19:59:00,39.3,29.6,29.99,NW,315,0.0,0.0,68,0.00,,---,0.00,VWS V14.01,2013-02-15 00:59:00,
2013-02-14 20:00:00,39.3,29.6,29.99,NW,315,0.0,4.0,68,0.00,,---,0.00,VWS V14.01,2013-02-15 01:00:00,
2013-02-14 20:04:00,39.5,29.8,29.99,NW,315,0.0,3.0,68,0.00,,---,0.00,VWS V14.01,2013-02-15 01:04:00,
2013-02-14 20:09:00,39.6,29.6,29.99,NW,315,2.0,3.0,67,0.00,,---,0.00,VWS V14.01,2013-02-15 01:09:00,
2013-02-14 20:14:00,39.7,30.0,29.99,NW,315,2.0,3.0,68,0.00,,---,0.00,VWS V14.01,2013-02-15 01:14:00,
2013-02-14 20:19:00,39.8,29.4,30.00,NW,315,4.0,4.0,66,0.00,,---,0.00,VWS V14.01,2013-02-15 01:19:00,
2013-02-14 20:24:00,40.0,28.8,30.00,NW,312,3.0,5.0,64,0.00,,---,0.00,VWS V14.01,2013-02-15 01:24:00,
2013-02-14 20:29:00,40.3,29.1,29.99,NW,312,4.0,4.0,64,0.00,,---,0.00,VWS V14.01,2013-02-15 01:29:00,
2013-02-14 20:30:00,40.3,29.1,29.99,NW,312,2.0,5.0,64,0.00,,---,0.00,VWS V14.01,2013-02-15 01:30:00,
2013-02-14 20:34:00,40.3,29.5,29.99,NW,312,2.0,5.0,65,0.00,,---,0.00,VWS V14.01,2013-02-15 01:34:00,
2013-02-14 20:39:00,39.8,29.4,29.99,NW,312,2.0,5.0,66,0.00,,---,0.00,VWS V14.01,2013-02-15 01:39:00,
2013-02-14 20:44:00,39.2,29.2,30.00,NW,312,2.0,5.0,67,0.00,,---,0.00,VWS V14.01,2013-02-15 01:44:00,
2013-02-14 20:49:00,38.6,29.0,30.00,NW,312,2.0,5.0,68,0.00,,---,0.00,VWS V14.01,2013-02-15 01:49:00,
2013-02-14 20:54:00,38.0,29.1,30.00,NW,312,0.0,5.0,70,0.00,,---,0.00,VWS V14.01,2013-02-15 01:54:00,
2013-02-14 20:59:00,37.5,29.6,30.00,NW,312,1.0,2.0,73,0.00,,---,0.00,VWS V14.01,2013-02-15 01:59:00,
2013-02-14 21:00:00,37.6,29.7,30.00,NW,312,2.0,5.0,73,0.00,,---,0.00,VWS V14.01,2013-02-15 02:00:00,
2013-02-14 21:04:00,36.7,29.5,30.00,NW,312,0.0,2.0,75,0.00,,---,0.00,VWS V14.01,2013-02-15 02:04:00,
2013-02-14 21:09:00,36.2,29.4,30.00,NW,312,0.0,2.0,76,0.00,,---,0.00,VWS V14.01,2013-02-15 02:09:00,
2013-02-14 21:14:00,35.9,29.1,30.00,NW,312,0.0,2.0,76,0.00,,---,0.00,VWS V14.01,2013-02-15 02:14:00,
2013-02-14 21:19:00,35.7,29.2,29.99,NW,312,0.0,2.0,77,0.00,,---,0.00,VWS V14.01,2013-02-15 02:19:00,
2013-02-14 21:24:00,35.6,29.1,29.99,NW,312,0.0,2.0,77,0.00,,---,0.00,VWS V14.01,2013-02-15 02:24:00,
2013-02-14 21:29:00,35.6,29.1,30.00,NW,312,0.0,0.0,77,0.00,,---,0.00,VWS V14.01,2013-02-15 02:29:00,
2013-02-14 21:30:00,35.6,29.1,30.00,NW,312,0.0,2.0,77,0.00,,---,0.00,VWS V14.01,2013-02-15 02:30:00,
2013-02-14 21:34:00,35.6,29.1,30.00,NW,312,2.0,2.0,77,0.00,,---,0.00,VWS V14.01,2013-02-15 02:34:00,
2013-02-14 21:39:00,35.7,29.2,30.00,NW,312,1.0,2.0,77,0.00,,---,0.00,VWS V14.01,2013-02-15 02:39:00,
2013-02-14 21:44:00,35.8,29.0,30.01,NW,312,1.0,3.0,76,0.00,,---,0.00,VWS V14.01,2013-02-15 02:44:00,
2013-02-14 21:49:00,35.9,29.1,30.01,NW,312,0.0,3.0,76,0.00,,---,0.00,VWS V14.01,2013-02-15 02:49:00,
2013-02-14 21:54:00,35.7,28.9,30.01,NW,312,0.0,3.0,76,0.00,,---,0.00,VWS V14.01,2013-02-15 02:54:00,
2013-02-14 21:59:00,35.2,28.7,30.02,NW,312,3.0,4.0,77,0.00,,---,0.00,VWS V14.01,2013-02-15 02:59:00,
2013-02-14 22:00:00,35.3,28.8,30.02,NW,312,2.0,3.0,77,0.00,,---,0.00,VWS V14.01,2013-02-15 03:00:00,
2013-02-14 22:04:00,34.9,28.4,30.02,NW,312,2.0,4.0,77,0.00,,---,0.00,VWS V14.01,2013-02-15 03:04:00,
2013-02-14 22:09:00,34.7,28.2,30.02,NW,307,0.0,4.0,77,0.00,,---,0.00,VWS V14.01,2013-02-15 03:09:00,
2013-02-14 22:14:00,34.4,28.3,30.02,NW,307,2.0,4.0,78,0.00,,---,0.00,VWS V14.01,2013-02-15 03:14:00,
2013-02-14 22:19:00,34.4,28.3,30.02,NW,307,2.0,4.0,78,0.00,,---,0.00,VWS V14.01,2013-02-15 03:19:00,
2013-02-14 22:24:00,35.1,28.6,30.02,NW,307,3.0,5.0,77,0.00,,---,0.00,VWS V14.01,2013-02-15 03:24:00,
2013-02-14 22:29:00,35.5,28.4,30.02,NW,305,3.0,3.0,75,0.00,,---,0.00,VWS V14.01,2013-02-15 03:29:00,
2013-02-14 22:30:00,35.5,28.7,30.02,NW,305,2.0,5.0,76,0.00,,---,0.00,VWS V14.01,2013-02-15 03:30:00,
2013-02-14 22:34:00,35.1,28.0,30.02,NW,305,2.0,3.0,75,0.00,,---,0.00,VWS V14.01,2013-02-15 03:34:00,
2013-02-14 22:39:00,34.3,27.9,30.02,NW,305,1.0,3.0,77,0.00,,---,0.00,VWS V14.01,2013-02-15 03:39:00,
2013-02-14 22:44:00,33.7,28.2,30.02,NW,305,0.0,3.0,80,0.00,,---,0.00,VWS V14.01,2013-02-15 03:44:00,
2013-02-14 22:49:00,33.2,28.0,30.02,NW,305,2.0,3.0,81,0.00,,---,0.00,VWS V14.01,2013-02-15 03:49:00,
2013-02-14 22:54:00,32.8,28.2,30.03,NW,305,1.0,3.0,83,0.00,,---,0.00,VWS V14.01,2013-02-15 03:54:00,
2013-02-14 22:59:00,32.5,27.9,30.02,NW,305,0.0,0.0,83,0.00,,---,0.00,VWS V14.01,2013-02-15 03:59:00,
2013-02-14 23:00:00,32.6,28.0,30.02,NW,305,0.0,3.0,83,0.00,,---,0.00,VWS V14.01,2013-02-15 04:00:00,
2013-02-14 23:04:00,32.4,28.1,30.02,NW,305,0.0,0.0,84,0.00,,---,0.00,VWS V14.01,2013-02-15 04:04:00,
2013-02-14 23:09:00,32.3,28.0,30.02,NW,305,0.0,0.0,84,0.00,,---,0.00,VWS V14.01,2013-02-15 04:09:00,
2013-02-14 23:14:00,32.1,27.8,30.02,NW,305,0.0,0.0,84,0.00,,---,0.00,VWS V14.01,2013-02-15 04:14:00,
2013-02-14 23:19:00,32.0,27.7,30.02,NW,305,1.0,2.0,84,0.00,,---,0.00,VWS V14.01,2013-02-15 04:19:00,
2013-02-14 23:24:00,31.8,27.8,30.02,NW,305,0.0,2.0,85,0.00,,---,0.00,VWS V14.01,2013-02-15 04:24:00,
2013-02-14 23:29:00,31.9,27.9,30.02,NW,305,0.0,0.0,85,0.00,,---,0.00,VWS V14.01,2013-02-15 04:29:00,
2013-02-14 23:30:00,31.9,27.9,30.02,NW,305,0.0,2.0,85,0.00,,---,0.00,VWS V14.01,2013-02-15 04:30:00,
2013-02-14 23:34:00,32.0,28.0,30.02,NW,305,0.0,0.0,85,0.00,,---,0.00,VWS V14.01,2013-02-15 04:34:00,
2013-02-14 23:39:00,32.2,27.9,30.02,NW,305,0.0,0.0,84,0.00,,---,0.00,VWS V14.01,2013-02-15 04:39:00,
2013-02-14 23:44:00,32.3,28.0,30.02,NW,305,0.0,0.0,84,0.00,,---,0.00,VWS V14.01,2013-02-15 04:44:00,
2013-02-14 23:49:00,32.4,28.1,30.02,NW,305,0.0,0.0,84,0.00,,---,0.00,VWS V14.01,2013-02-15 04:49:00,
2013-02-14 23:54:00,32.4,27.8,30.02,NW,305,0.0,0.0,83,0.00,,---,0.00,VWS V14.01,2013-02-15 04:54:00,
2013-02-14 23:59:00,32.3,27.7,30.02,NW,305,0.0,0.0,83,0.00,,---,0.00,VWS V14.01,2013-02-15 04:59:00,